St. Joseph, KS

5:33 AM CDT on September 15, 2019 (GMT -0500)
Rosecrans Memorial

Weather History for KSTJ - July, 2019

Change the Weather History Date:

Saturday, July 27, 2019

  Actual Average Record
Temperature  
Mean Temperature 78 °F 77 °F  
Max Temperature 89 °F 87 °F 106 °F (1930)
Min Temperature 67 °F 67 °F 47 °F (1971)
Degree Days  
Heating Degree Days 0 0  
Month to date heating degree days 0 0  
Since 1 June heating degree days 1 8  
Since 1 July heating degree days 0 0  
Cooling Degree Days 13 12  
Month to date cooling degree days 385 322  
Year to date cooling degree days 779 702  
Since 1 June cooling degree days 678 589  
Growing Degree Days 28 (Base 50)    
Moisture  
Dew Point 63 °F    
Average Humidity 60    
Maximum Humidity 76    
Minimum Humidity 43    
Precipitation  
Precipitation 0.00 in 0.18 in 1.83 in (1967)
Month to date precipitation 0.78 4.51  
Year to date precipitation 22.05 21.64  
Sea Level Pressure  
Sea Level Pressure 30.08 in    
Wind  
Wind Speed 8 mph (South)    
Max Wind Speed 16 mph    
Max Gust Speed 23 mph    
Visibility 7 miles    
Events      
T = Trace of Precipitation, MM = Missing Value Source: NWS Daily Summary

Daily Weather History Graph

Daily Weather History Graph

Search for Another Location

Airport or City:

Astronomy

Jul. 27, 2019 Rise Set
Actual Time 6:13 AM CDT 8:37 PM CDT
Civil Twilight 5:43 AM CDT 9:08 PM CDT
Nautical Twilight 5:05 AM CDT 9:46 PM CDT
Astronomical Twilight 4:23 AM CDT 10:28 PM CDT
Moon 2:00 AM CDT (7/27) 4:30 PM CDT (7/27)
Length of Visible Light 15h 25m
Length of Day
14h 24m
Waning Crescent, 24% of the Moon is Illuminated
Jul 27
Waning Crescent
Jul 31
New
Aug 7
First Quarter
Aug 15
Full
Aug 23
Last Quarter

Hourly Weather History & Observations

Time (CDT) Temp. Heat Index Dew Point Humidity Pressure Visibility Wind Dir Wind Speed Gust Speed Precip Events Conditions
12:53 AM 73.9 °F - 62.1 °F 66% 30.09 in 9.0 mi South 8.1 mph - N/A   Clear
1:53 AM 73.0 °F - 62.1 °F 68% 30.08 in 9.0 mi South 6.9 mph - N/A   Clear
2:53 AM 72.0 °F - 62.1 °F 71% 30.08 in 9.0 mi South 8.1 mph - N/A   Clear
3:53 AM 71.1 °F - 61.0 °F 70% 30.08 in 9.0 mi SSW 5.8 mph - N/A   Clear
4:53 AM 70.0 °F - 61.0 °F 73% 30.09 in 9.0 mi South 6.9 mph - N/A   Clear
5:53 AM 68.0 °F - 61.0 °F 78% 30.10 in 9.0 mi South 5.8 mph - N/A   Clear
6:53 AM 69.1 °F - 61.0 °F 75% 30.11 in 8.0 mi Calm Calm - N/A   Clear
7:53 AM 72.0 °F - 61.0 °F 68% 30.12 in 8.0 mi South 6.9 mph - N/A   Clear
8:53 AM 75.0 °F - 62.1 °F 64% 30.13 in 8.0 mi SSW 9.2 mph - N/A   Clear
9:53 AM 78.1 °F - 64.0 °F 62% 30.13 in 7.0 mi SW 4.6 mph - N/A   Clear
10:53 AM 82.0 °F 83.8 °F 64.9 °F 56% 30.12 in 6.0 mi SW 9.2 mph - N/A   Haze
11:53 AM 84.0 °F 85.8 °F 64.9 °F 53% 30.11 in 5.0 mi SSW 11.5 mph 19.6 mph N/A   Haze
12:53 PM 84.9 °F 87.1 °F 66.0 °F 53% 30.10 in 4.0 mi SSW 10.4 mph - N/A   Haze
1:53 PM 87.1 °F 88.9 °F 64.9 °F 48% 30.08 in 5.0 mi South 13.8 mph - N/A   Haze
2:53 PM 88.0 °F 89.6 °F 64.9 °F 46% 30.07 in 2.0 mi SSW 15.0 mph - N/A   Haze
3:01 PM 88.0 °F 89.3 °F 64.0 °F 45% 30.09 in 5.0 mi SSW 15.0 mph - N/A   Haze
3:53 PM 88.0 °F 89.6 °F 64.9 °F 46% 30.06 in 5.0 mi South 13.8 mph - N/A   Haze
4:53 PM 87.1 °F 87.8 °F 63.0 °F 44% 30.05 in 7.0 mi South 11.5 mph - N/A   Clear
5:53 PM 86.0 °F 87.3 °F 64.0 °F 48% 30.05 in 8.0 mi South 10.4 mph - N/A   Clear
6:53 PM 84.0 °F 85.8 °F 64.9 °F 53% 30.04 in 9.0 mi South 9.2 mph - N/A   Clear
7:53 PM 82.0 °F 83.8 °F 64.9 °F 56% 30.04 in 8.0 mi South 8.1 mph - N/A   Clear
8:24 PM 80.1 °F 81.9 °F 64.9 °F 60% 30.06 in 8.0 mi SSE 8.1 mph - N/A   Scattered Clouds
8:53 PM 79.0 °F - 64.0 °F 60% 30.04 in 9.0 mi SSE 8.1 mph - N/A   Unknown
9:53 PM 75.9 °F - 64.9 °F 69% 30.06 in 8.0 mi South 6.9 mph - N/A   Clear